www.pogodaiklimat.ru

Погода и климат >> Архив погоды >> Мексика >> Сьюдад-Конститусьон


ПОГОДА в Сьюдад-Конститусьоне

  • Прогноз погоды в Сьюдад-Конститусьоне
  • Монитор погоды в Сьюдад-Конститусьоне

АРХИВ ПОГОДЫ в Сьюдад-Конститусьоне

Время (UTC), дата Ветер
(напр.,м/с)
 
Видим.   Явления Облачность Т
(С)
Тd
(С)
f
(%)
Тe
(С)
Тes
(С)
Комфортность P
(гПа)
Po
(гПа)
Тmin
(С)
Tmax
(С)
R
(мм)
R24
(мм)
S
(см)
15 16.02 З 2 8000 м мгла {туман} ясно +13.6 +10.5 82 +13 +15 1016.8 1011.0
18 16.02 З 6 8000 м мгла {туман} ясно +21.4 +10.4 49 +23 +28 комфорт 1016.7 1010.9 +11.5 +21.5
21 16.02 З 6 7000 м пыльный позёмок {туман} ясно +24.6 +8.6 36 +25 +30 комфорт 1014.1 1008.4
00 17.02 З 9 5000 м пыльный позёмок {туман} ясно +22.4 +7.9 39 +23 +24 комфорт 1012.6 1007.0 +11.5 +25.0
09 17.02 З 3 5000 м ясно +13.2 +10.1 81 +12 +12 1014.3 1008.7
12 17.02 З 1 5000 м ясно +11.0 +9.4 90 +11 +11 1014.3 1008.5 +10.0 +25.0
15 17.02 СЗ 2 5000 м мгла {туман} ясно +11.4 +8.5 82 +10 +12 1016.8 1011.0
18 17.02 С 2 10 км мгла {туман} ясно +19.8 +9.4 51 +22 +34 комфорт 1017.9 1012.1 +8.0 +20.5
21 17.02 З 2 10 км мгла {туман} 3/0
[Cs]
+25.2 +6.2 30 +25 +36 комфорт 1016.3 1010.5
00 18.02 З 7 8000 м пыльный позёмок {туман} 3/0
[Cs]
+22.4 +7.8 39 +23 +24 комфорт 1015.1 1009.4 +8.0 +26.5
03 18.02 З 3 5000 м 6/0
[Cs]
+17.2 +6.1 48 +17 +17 1016.4 1010.7
06 18.02 СЗ 3 5000 м 9/0
[Cs]
+15.6 +6.5 55 +15 +15 1017.6 1011.9 +8.0 +26.5
12 18.02 СЗ 3 5000 м ясно +12.1 +10.7 91 +10 +10 1016.2 1010.4 +10.8 +26.5
15 18.02 штиль 0 10 км 4/0 2000 м
[Ac trans]
+9.6 +7.5 87 +9 +11 1018.1 1012.3
18 18.02 СЗ 7 6000 м пыльный позёмок {туман} 6/0 2000 м
[Ac trans Cs]
+19.0 +7.6 48 +19 +21 1018.7 1012.9 +8.6 +19.2
21 18.02 З 7 6000 м пыльный позёмок {туман} 9/0
[Cs]
+21.0 +6.2 38 +22 +24 комфорт 1016.8 1011.0
00 19.02 З 4 8000 м мгла {туман} 9/0 2000 м
[As op]
+17.6 +7.7 52 +17 +18 1015.7 1010.0 +8.6 +21.8
03 19.02 З 3 5000 м 4/0 2000 м
[Ac und]
+15.4 +9.1 66 +15 +15 1015.8 1010.1
06 19.02 ЮЗ 1 5000 м ясно +11.2 +8.8 85 +11 +11 1016.5 1010.8 +8.6 +21.8
09 19.02 З 3 2000 м ясно +12.4 +7.9 74 +11 +11 1015.6 1009.8
12 19.02 С 1 5000 м ясно +13.2 +7.0 66 +14 +14 1015.4 1009.6 +9.2 +21.8
15 19.02 СЗ 5 10 км мгла {туман} 5/5 840 м
[St]
+12.8 +6.0 63 +11 +11 1018.3 1012.5
18 19.02 СЗ 7 8000 м мгла {туман} 3/3 840 м
[St]
+17.4 +4.1 41 +16 +19 1019.8 1014.0 +9.0 +17.8
00 20.02 З 5 10 км мгла {туман} 1/0
[Ci]
+18.8 +2.7 34 +19 +19 1015.7 1010.0 +9.0 +20.5
03 20.02 З 3 5000 м 5/0
[Cs]
+14.2 +4.7 53 +13 +13 1017.0 1011.2
06 20.02 С 1 5000 м 6/0
[Cs]
+12.0 +6.5 69 +12 +12 1018.1 1012.4 +20.5
09 20.02 С 1 5000 м ясно +9.2 +5.2 76 +9 +9 1016.1 1010.3
12 20.02 5000 м ясно +8.3 +3.6 72 1014.9 1009.1 +7.0 +20.5
15 20.02 СВ 1 8000 м мгла {туман} 9/0 2000 м
[Ac und]
+8.8 +2.0 62 +8 +9 1016.3 1010.4
18 20.02 СЗ 2 12 км мгла {туман} 6/0
[Cs]
+18.2 +0.3 30 +19 +30 1016.3 1010.5 +7.0 +18.8
21 20.02 З 2 12 км мгла {туман} 9/0 2000 м
[Ac trans Cs]
+20.4 -0.7 24 +21 +31 комфорт 1013.9 1008.1
00 21.02 З 5 12 км мгла {туман} 10/0 2000 м
[Ac und Cs]
+18.4 0.0 29 +18 +19 1012.7 1007.0 +7.0 +21.6
03 21.02 З 3 5000 м 9/0 2000 м
[Ac und Cs]
+14.8 +4.4 50 +14 +14 1014.1 1008.4
06 21.02 З 1 5000 м 6/0 2000 м
[Ac und]
+10.8 +4.5 65 +11 +11 1014.3 1008.6 +7.0 +21.6
09 21.02 З 3 5000 м ясно +10.2 +5.4 72 +8 +8 1012.6 1006.8
12 21.02 В 1 5000 м ясно +6.2 +3.3 82 +5 +5 1012.1 1006.3 +5.3 +21.6
15 21.02 В 1 10 км мгла {туман} 9/9 840 м
[St]
+7.0 +3.2 77 +6 +6 1014.3 1008.5
18 21.02 З 2 10 км мгла {туман} 3/3 840 м
[St]
+16.8 +6.6 51 +17 +26 1015.3 1009.4 +3.6 +17.2
21 21.02 З 4 10 км мгла {туман} 1/1 840 м
[St]
+20.8 +4.8 35 +22 +29 комфорт 1013.5 1007.7
00 22.02 ЮЗ 4 10 км мгла {туман} 1/1 840 м
[St]
+20.4 +5.3 37 +21 +22 комфорт 1012.7 1007.0 +3.6 +22.0
03 22.02 ЮЗ 1 5000 м ясно +15.2 +8.9 66 +16 +16 1017.3 1011.6
06 22.02 Ю 1 5000 м ясно +11.2 +7.9 80 +11 +11 1015.1 1008.4 +3.6 +22.0
15 22.02 В 2 10 км мгла {туман} 5/5 840 м
[St]
+11.8 +8.1 78 +11 +12 1016.4 1010.6
18 22.02 ЮЗ 3 10 км мгла {туман} 9/9 840 м
[Frnb]
+19.4 +11.8 61 +21 +22 комфорт 1017.5 1011.7 +6.8 +19.6
21 22.02 ЮЗ 6 10 км мгла {туман} 9/9 840 м
[Frnb]
+21.0 +12.1 57 +23 +24 комфорт 1017.0 1011.3 0.5
00 23.02 З 7 10 км мгла {туман} 9/9 840 м
[Frnb]
+18.8 +12.3 66 +19 +19 1017.5 1011.8 +6.8 +22.6

 

Местоположение метеостанции Сьюдад-Конститусьон (Мексика): широта 24.95 долгота -111.70 высота над уровнем моря 48 м.

В архиве по умолчанию представлена погода в Сьюдад-Конститусьоне за последнюю неделю. Архивные данные за месяц целиком и за предыдущие месяцы, начиная с января 2011 года, Вы можете получить, выбрав интересующий диапазон дат из раскрывающегося списка и нажав кнопку "Ввод!".


*Определитесь, кто Вы:
робот инопланетянин человек

Внимание! Время в таблицах - всемирное. Для получения местного времени необходимо прибавить поправку, которая равна -6 ч.

Смотрите также архив погоды в соседних городах и на ближайших метеорологических станциях:

Погода в Лорето (Мексика) (126 км)
Погода в Ла-Пасе (Мексика) (166 км)
Погода в Санта-Розалии (Мексика) (265 км)
Погода с Сьюдад-Обрегоне (Мексика) (329 км)
Погода в Гуаймасе (Мексика) (340 км)
Погода в Эмпальме (Мексика) (348 км)
Погода в Чойсе (Мексика) (402 км)
Погода в Кульякане (Мексика) (434 км)
Погода в Эрмосильо (Мексика) (465 км)
Погода в Эрмосильо Магна (Мексика) (465 км)

Пояснения к столбцам:

Ветер - указаны скорость ветра в м/с - средняя за 10 мин, порывы в срок и между сроками (в фигурных скобках) и направление, откуда дует ветер: С - северный, СВ - северо-восточный, В - восточный, ЮВ - юго-восточный, Ю - южный, ЮЗ - юго-западный, З - западный, СЗ - северо-западный.
Видимость - горизонтальная дальность видимости в метрах или километрах. При видимости от 1 до 10 км при отсутствии осадков обычно наблюдается дымка, при ухудшении видимости до 1 км и менее - туман. В сухую погоду видимость может ухудшаться дымом, пылью или мглою.
Явления - указаны атмосферные явления, наблюдавшиеся в срок или в последний час перед сроком; фигурными скобками обозначены явления, наблюдавшиеся между сроками (за 1-3 часа до срока); квадратными скобками обозначены град или гололедные отложения с указанием их диаметра в мм.
Облачность - указаны через наклонную черту общая и нижняя облачность в баллах и высота нижней границы облаков в метрах; квадратными скобками обозначены формы облаков: Ci - перистые, Cs - перисто-слоистые, Cc - перисто-кучевые, Ac - высококучевые, As - высокослоистые, Sc - слоисто-кучевые, Ns - слоисто-дождевые, Cu - кучевые, Cb - кучево-дождевые. Подробнее классификацию облаков см. в Атласе облаков (PDF).
T - Температура воздуха - температура, измеренная на высоте 2 м над землей.
Td - Температура точки росы - температура, при понижении до которой содержащийся в воздухе водяной пар достигнет насыщения.
f - Относительная влажность воздуха - влажноcть воздуха, измеренная на высоте 2 м над землей.
Te - Эффективная температура - температура, которую ощущает одетый по сезону человек в тени. Характеристика душности погоды. При расчете учитывается влияние влажности воздуха и скорости ветра на теплоощущения человека.
Tes - Эффективная температура на солнце - температура, которую ощущает человек, с поправкой на солнечный нагрев. Характеристика знойности погоды. Зависит от высоты солнца над горизонтом, облачности и скорости ветра. Ночью, в пасмурную погоду, а также при ветре 12 м/с и более поправка равна нулю.
P - Атмосферное давление - приведенное к уровню моря атмосферное давление.
Po - Атмосферное давление - измеренное на уровне метеостанции атмосферное давление.
Tmin - Минимальная температура - минимум температуры воздуха на высоте 2 м над землей.
Tmax - Максимальная температура - максимум температуры воздуха на высоте 2 м над землей.
R - Количество осадков - Количество выпавших осадков за период времени, мм. При наведении курсора мыши на число - период времени, за который выпало указанное количество осадков.
R24 - Количество осадков - Количество выпавших осадков за 24 часа, мм.
S - Снежный покров - Высота снежного покрова, см. При наведении курсора мыши на число - состояние снежного покрова и степень покрытия местности в баллах.